Grub im Wienerwald
Wetterdaten: aktuell Dienstag, 26.03.2019 13:48
Datum Zeit Temp. A. Feuchte A. Luftdruck Regen Wind Richtung Richtung Sonnenschein UV Solar Taupunkt Windchill Windben
26.03.2019 13:48 8,4 C 48 % 1023,7 hPa 0,0 l/m 4,9 km/h SO 130 0 min 1,8 UV-I 258 W/m -2,0 C 8,4 C 14,5 km/h
26.03.2019 13:45 8,6 C 48 % 1023,6 hPa 0,0 l/m 9,6 km/h SO 126 0 min 1,7 UV-I 250 W/m -1,8 C 6,3 C 24,1 km/h
26.03.2019 13:42 8,7 C 47 % 1023,8 hPa 0,0 l/m 14,9 km/h W 277 0 min 2,0 UV-I 294 W/m -2,0 C 3,6 C 33,8 km/h
26.03.2019 13:39 8,8 C 46 % 1023,8 hPa 0,0 l/m 15,9 km/h W-NW 290 0 min 2,0 UV-I 297 W/m -2,2 C 3,3 C 32,2 km/h
26.03.2019 13:36 8,8 C 47 % 1023,8 hPa 0,0 l/m 10,0 km/h W 277 0 min 2,1 UV-I 308 W/m -1,9 C 6,3 C 25,7 km/h
26.03.2019 13:33 9,0 C 46 % 1023,7 hPa 0,0 l/m 18,4 km/h NW 311 0 min 2,2 UV-I 294 W/m -2,0 C 2,6 C 35,4 km/h
26.03.2019 13:30 9,0 C 47 % 1023,7 hPa 0,0 l/m 14,3 km/h N-NW 329 3 min 2,6 UV-I 863 W/m -1,7 C 4,2 C 29,0 km/h
26.03.2019 13:27 8,8 C 48 % 1023,7 hPa 0,0 l/m 13,7 km/h N-NW 331 3 min 3,6 UV-I 863 W/m -1,6 C 4,3 C 27,4 km/h
26.03.2019 13:24 8,7 C 49 % 1024,0 hPa 0,0 l/m 13,7 km/h W-NW 299 3 min 4,1 UV-I 863 W/m -1,4 C 4,2 C 24,1 km/h
26.03.2019 13:21 8,6 C 51 % 1023,7 hPa 0,0 l/m 9,1 km/h NW 322 3 min 4,1 UV-I 708 W/m -1,0 C 6,6 C 27,4 km/h
26.03.2019 13:18 8,3 C 50 % 1023,8 hPa 0,0 l/m 13,0 km/h NW 315 3 min 4,1 UV-I 837 W/m -1,5 C 4,0 C 22,5 km/h
26.03.2019 13:15 8,3 C 50 % 1023,9 hPa 0,0 l/m 16,4 km/h NW 312 0 min 4,0 UV-I 318 W/m -1,5 C 2,5 C 29,0 km/h
26.03.2019 13:12 8,3 C 51 % 1023,9 hPa 0,0 l/m 21,3 km/h NW 320 0 min 2,4 UV-I 176 W/m -1,2 C 0,7 C 32,2 km/h
26.03.2019 13:09 8,2 C 49 % 1024,0 hPa 0,0 l/m 13,9 km/h NW 323 0 min 4,1 UV-I 346 W/m -1,9 C 3,5 C 22,5 km/h
26.03.2019 13:06 8,2 C 49 % 1024,0 hPa 0,0 l/m 18,1 km/h NW 316 0 min 2,5 UV-I 315 W/m -1,9 C 1,7 C 29,0 km/h
26.03.2019 13:03 8,3 C 49 % 1024,1 hPa 0,0 l/m 15,5 km/h N-NW 334 0 min 2,5 UV-I 352 W/m -1,8 C 2,9 C 30,6 km/h
26.03.2019 13:00 8,4 C 49 % 1024,1 hPa 0,0 l/m 19,6 km/h W-NW 301 0 min 2,2 UV-I 308 W/m -1,7 C 1,4 C 30,6 km/h
26.03.2019 12:57 8,3 C 50 % 1024,1 hPa 0,0 l/m 15,6 km/h N 355 0 min 2,4 UV-I 313 W/m -1,5 C 2,8 C 29,0 km/h
26.03.2019 12:54 8,2 C 51 % 1024,0 hPa 0,0 l/m 12,9 km/h NW 323 0 min 4,4 UV-I 357 W/m -1,3 C 4,0 C 27,4 km/h
26.03.2019 12:51 8,2 C 50 % 1023,9 hPa 0,0 l/m 15,5 km/h N-NW 340 0 min 3,2 UV-I 323 W/m -1,6 C 2,7 C 25,7 km/h
26.03.2019 12:48 8,3 C 51 % 1024,0 hPa 0,0 l/m 14,2 km/h W 273 0 min 2,6 UV-I 304 W/m -1,2 C 3,4 C 29,0 km/h
26.03.2019 12:45 8,3 C 50 % 1023,9 hPa 0,0 l/m 11,9 km/h N 355 0 min 2,7 UV-I 297 W/m -1,5 C 4,6 C 22,5 km/h
26.03.2019 12:42 8,4 C 49 % 1024,1 hPa 0,0 l/m 22,4 km/h NW 306 0 min 2,6 UV-I 299 W/m -1,7 C 0,4 C 37,0 km/h
26.03.2019 12:39 8,6 C 51 % 1024,1 hPa 0,0 l/m 12,4 km/h NW 316 0 min 2,4 UV-I 279 W/m -1,0 C 4,7 C 25,7 km/h
26.03.2019 12:36 8,6 C 51 % 1024,1 hPa 0,0 l/m 15,2 km/h N-NW 330 0 min 2,6 UV-I 309 W/m -1,0 C 3,3 C 29,0 km/h
26.03.2019 12:33 8,6 C 51 % 1023,9 hPa 0,0 l/m 13,5 km/h N-NW 328 0 min 2,6 UV-I 316 W/m -1,0 C 4,1 C 32,2 km/h
26.03.2019 12:30 8,6 C 51 % 1024,2 hPa 0,0 l/m 14,8 km/h W-NW 290 0 min 3,2 UV-I 260 W/m -1,0 C 3,5 C 24,1 km/h
26.03.2019 12:27 8,5 C 52 % 1024,1 hPa 0,0 l/m 22,3 km/h N-NW 333 3 min 2,7 UV-I 383 W/m -0,8 C 0,6 C 37,0 km/h
26.03.2019 12:24 8,2 C 54 % 1024,2 hPa 0,0 l/m 18,4 km/h N-NW 331 3 min 4,5 UV-I 889 W/m -0,5 C 1,5 C 35,4 km/h
26.03.2019 12:21 7,8 C 54 % 1024,1 hPa 0,0 l/m 13,0 km/h N 9 3 min 4,4 UV-I 867 W/m -0,9 C 3,4 C 24,1 km/h
26.03.2019 12:18 7,7 C 55 % 1024,1 hPa 0,0 l/m 13,8 km/h NW 319 0 min 3,4 UV-I 283 W/m -0,8 C 2,9 C 25,7 km/h
26.03.2019 12:15 7,8 C 54 % 1024,1 hPa 0,0 l/m 14,5 km/h W-NW 303 0 min 2,4 UV-I 301 W/m -0,9 C 2,7 C 22,5 km/h
26.03.2019 12:12 7,8 C 53 % 1024,1 hPa 0,0 l/m 12,6 km/h N-NW 330 0 min 2,2 UV-I 306 W/m -1,2 C 3,7 C 19,3 km/h
26.03.2019 12:09 8,0 C 53 % 1024,2 hPa 0,0 l/m 12,0 km/h NW 318 0 min 2,5 UV-I 292 W/m -1,0 C 4,2 C 25,7 km/h
26.03.2019 12:06 8,2 C 53 % 1024,3 hPa 0,0 l/m 16,4 km/h NW 315 0 min 2,1 UV-I 229 W/m -0,8 C 2,3 C 25,7 km/h
26.03.2019 12:03 8,3 C 54 % 1024,2 hPa 0,0 l/m 14,4 km/h N-NW 333 0 min 2,0 UV-I 246 W/m -0,5 C 3,4 C 27,4 km/h
26.03.2019 12:00 8,3 C 54 % 1024,2 hPa 0,0 l/m 11,5 km/h W-NW 285 3 min 3,0 UV-I 517 W/m -0,5 C 4,8 C 27,4 km/h
26.03.2019 11:57 8,2 C 56 % 1024,3 hPa 0,0 l/m 15,2 km/h W-NW 292 3 min 4,1 UV-I 499 W/m -0,0 C 2,9 C 27,4 km/h
26.03.2019 11:54 7,9 C 58 % 1024,2 hPa 0,0 l/m 9,8 km/h N-NO 16 3 min 4,7 UV-I 911 W/m 0,2 C 5,4 C 20,9 km/h
26.03.2019 11:51 7,7 C 58 % 1024,4 hPa 0,0 l/m 14,5 km/h NW 313 3 min 4,6 UV-I 466 W/m -0,0 C 2,6 C 22,5 km/h
26.03.2019 11:48 7,7 C 58 % 1024,3 hPa 0,0 l/m 16,6 km/h N 360 3 min 2,8 UV-I 577 W/m -0,0 C 1,6 C 29,0 km/h
26.03.2019 11:45 7,7 C 58 % 1024,4 hPa 0,0 l/m 14,9 km/h N-NW 338 0 min 2,7 UV-I 355 W/m -0,0 C 2,4 C 27,4 km/h
26.03.2019 11:42 7,7 C 59 % 1024,4 hPa 0,0 l/m 12,3 km/h N-NW 344 3 min 3,6 UV-I 874 W/m 0,2 C 3,7 C 22,5 km/h
26.03.2019 11:39 7,8 C 55 % 1024,3 hPa 0,0 l/m 11,7 km/h NW 325 0 min 2,0 UV-I 327 W/m -0,7 C 4,1 C 19,3 km/h
26.03.2019 11:36 8,1 C 56 % 1024,4 hPa 0,0 l/m 13,4 km/h W-NW 284 0 min 1,5 UV-I 199 W/m -0,1 C 3,6 C 20,9 km/h
26.03.2019 11:33 8,2 C 57 % 1024,4 hPa 0,0 l/m 13,0 km/h NW 325 0 min 1,6 UV-I 221 W/m 0,2 C 3,9 C 25,7 km/h
26.03.2019 11:30 8,3 C 58 % 1024,4 hPa 0,0 l/m 15,0 km/h N-NW 329 0 min 2,2 UV-I 332 W/m 0,5 C 3,1 C 27,4 km/h
26.03.2019 11:27 8,2 C 60 % 1024,4 hPa 0,0 l/m 13,6 km/h W-NW 290 3 min 4,6 UV-I 914 W/m 0,9 C 3,6 C 32,2 km/h
26.03.2019 11:24 7,9 C 62 % 1024,4 hPa 0,0 l/m 15,8 km/h W-NW 297 3 min 4,5 UV-I 902 W/m 1,1 C 2,2 C 27,4 km/h
26.03.2019 11:21 7,7 C 61 % 1024,5 hPa 0,0 l/m 15,8 km/h N-NW 329 3 min 4,1 UV-I 805 W/m 0,7 C 2,0 C 25,7 km/h
26.03.2019 11:18 7,4 C 64 % 1024,6 hPa 0,0 l/m 16,6 km/h NW 311 3 min 4,3 UV-I 872 W/m 1,0 C 1,3 C 30,6 km/h
26.03.2019 11:15 7,1 C 64 % 1024,5 hPa 0,0 l/m 18,5 km/h NW 321 3 min 4,3 UV-I 823 W/m 0,8 C 0,1 C 32,2 km/h
26.03.2019 11:12 6,8 C 65 % 1024,4 hPa 0,0 l/m 11,6 km/h N-NW 334 3 min 3,6 UV-I 768 W/m 0,7 C 3,1 C 20,9 km/h
26.03.2019 11:09 6,6 C 65 % 1024,5 hPa 0,0 l/m 13,7 km/h NW 326 3 min 4,0 UV-I 758 W/m 0,5 C 1,7 C 29,0 km/h
26.03.2019 11:06 6,4 C 66 % 1024,5 hPa 0,0 l/m 14,2 km/h N-NW 334 0 min 3,1 UV-I 229 W/m 0,5 C 1,2 C 22,5 km/h
26.03.2019 11:03 6,4 C 66 % 1024,6 hPa 0,0 l/m 12,8 km/h NW 310 0 min 2,8 UV-I 229 W/m 0,5 C 1,9 C 20,9 km/h
26.03.2019 11:00 6,5 C 65 % 1024,4 hPa 0,0 l/m 14,8 km/h W 270 0 min 2,6 UV-I 279 W/m 0,4 C 1,0 C 25,7 km/h
26.03.2019 10:57 6,7 C 65 % 1024,5 hPa 0,0 l/m 15,8 km/h NW 304 0 min 2,6 UV-I 253 W/m 0,6 C 0,8 C 30,6 km/h
26.03.2019 10:54 6,8 C 63 % 1024,6 hPa 0,0 l/m 10,4 km/h W-NW 302 0 min 2,5 UV-I 248 W/m 0,3 C 3,8 C 22,5 km/h
26.03.2019 10:51 6,9 C 64 % 1024,6 hPa 0,0 l/m 14,5 km/h N-NW 328 0 min 1,8 UV-I 244 W/m 0,6 C 1,6 C 27,4 km/h
26.03.2019 10:48 6,9 C 63 % 1024,4 hPa 0,0 l/m 16,1 km/h NW 319 0 min 1,7 UV-I 230 W/m 0,4 C 0,9 C 29,0 km/h
26.03.2019 10:45 6,7 C 63 % 1024,3 hPa 0,0 l/m 16,5 km/h W-NW 282 3 min 2,7 UV-I 754 W/m 0,2 C 0,4 C 24,1 km/h
26.03.2019 10:42 6,5 C 64 % 1024,3 hPa 0,0 l/m 18,3 km/h N-NW 334 0 min 3,7 UV-I 345 W/m 0,2 C -0,6 C 32,2 km/h
26.03.2019 10:39 6,4 C 66 % 1024,4 hPa 0,0 l/m 16,6 km/h NW 305 3 min 2,7 UV-I 724 W/m 0,5 C 0,0 C 29,0 km/h
26.03.2019 10:36 6,3 C 69 % 1024,6 hPa 0,0 l/m 16,0 km/h W-NW 295 0 min 2,4 UV-I 227 W/m 1,0 C 0,2 C 25,7 km/h
26.03.2019 10:33 6,2 C 70 % 1024,4 hPa 0,0 l/m 13,5 km/h NW 314 0 min 1,7 UV-I 232 W/m 1,1 C 1,3 C 25,7 km/h
26.03.2019 10:30 6,1 C 71 % 1024,4 hPa 0,0 l/m 12,4 km/h N-NW 328 0 min 1,9 UV-I 271 W/m 1,2 C 1,8 C 20,9 km/h
26.03.2019 10:27 5,9 C 70 % 1024,4 hPa 0,0 l/m 10,9 km/h W-NW 287 0 min 2,2 UV-I 274 W/m 0,9 C 2,5 C 17,7 km/h
26.03.2019 10:24 5,9 C 70 % 1024,3 hPa 0,0 l/m 14,8 km/h N-NW 339 0 min 1,9 UV-I 323 W/m 0,9 C 0,3 C 29,0 km/h
26.03.2019 10:21 5,9 C 70 % 1024,4 hPa 0,0 l/m 10,0 km/h N-NW 331 0 min 1,8 UV-I 246 W/m 0,9 C 3,1 C 17,7 km/h
26.03.2019 10:18 5,9 C 70 % 1024,5 hPa 0,0 l/m 9,0 km/h W-NW 284 0 min 1,8 UV-I 214 W/m 0,9 C 3,8 C 17,7 km/h
26.03.2019 10:15 5,9 C 69 % 1024,4 hPa 0,0 l/m 8,5 km/h N 355 0 min 1,7 UV-I 218 W/m 0,7 C 4,2 C 17,7 km/h
26.03.2019 10:12 6,0 C 68 % 1024,4 hPa 0,0 l/m 13,0 km/h W-NW 296 0 min 1,6 UV-I 214 W/m 0,6 C 1,3 C 24,1 km/h
26.03.2019 10:09 6,1 C 68 % 1024,3 hPa 0,0 l/m 13,7 km/h N-NW 348 0 min 1,2 UV-I 167 W/m 0,6 C 1,1 C 25,7 km/h
26.03.2019 10:06 6,2 C 68 % 1024,3 hPa 0,0 l/m 12,7 km/h W-NW 291 0 min 1,1 UV-I 193 W/m 0,7 C 1,7 C 20,9 km/h
26.03.2019 10:03 6,4 C 67 % 1024,4 hPa 0,0 l/m 16,9 km/h NW 323 0 min 1,5 UV-I 204 W/m 0,7 C -0,1 C 29,0 km/h
26.03.2019 10:00 6,6 C 67 % 1024,4 hPa 0,0 l/m 12,1 km/h NW 304 0 min 1,2 UV-I 163 W/m 0,9 C 2,5 C 25,7 km/h
26.03.2019 09:57 6,7 C 68 % 1024,4 hPa 0,0 l/m 13,5 km/h NW 323 0 min 1,1 UV-I 165 W/m 1,2 C 1,9 C 20,9 km/h
26.03.2019 09:54 6,6 C 70 % 1024,4 hPa 0,0 l/m 15,6 km/h N 9 0 min 1,1 UV-I 183 W/m 1,5 C 0,7 C 27,4 km/h
26.03.2019 09:51 6,5 C 69 % 1024,3 hPa 0,0 l/m 15,5 km/h N-NW 340 0 min 2,0 UV-I 253 W/m 1,2 C 0,7 C 24,1 km/h
26.03.2019 09:48 6,4 C 69 % 1024,3 hPa 0,0 l/m 13,3 km/h NW 314 3 min 2,6 UV-I 751 W/m 1,1 C 1,6 C 22,5 km/h
26.03.2019 09:45 6,3 C 69 % 1024,3 hPa 0,0 l/m 17,3 km/h N 360 3 min 1,7 UV-I 341 W/m 1,0 C -0,4 C 33,8 km/h
26.03.2019 09:42 6,3 C 69 % 1024,3 hPa 0,0 l/m 13,6 km/h N 349 3 min 2,2 UV-I 341 W/m 1,0 C 1,4 C 25,7 km/h
26.03.2019 09:39 6,3 C 69 % 1024,3 hPa 0,0 l/m 15,9 km/h N-NW 328 0 min 2,6 UV-I 287 W/m 1,0 C 0,2 C 35,4 km/h
26.03.2019 09:36 6,4 C 71 % 1024,4 hPa 0,0 l/m 13,9 km/h N-NW 328 0 min 1,5 UV-I 190 W/m 1,5 C 1,3 C 30,6 km/h
26.03.2019 09:33 6,2 C 73 % 1024,3 hPa 0,0 l/m 14,0 km/h NW 325 3 min 1,9 UV-I 371 W/m 1,7 C 1,0 C 33,8 km/h
26.03.2019 09:30 5,9 C 75 % 1024,2 hPa 0,0 l/m 10,1 km/h N-NW 333 3 min 2,5 UV-I 691 W/m 1,8 C 3,0 C 17,7 km/h
26.03.2019 09:27 5,7 C 74 % 1024,3 hPa 0,0 l/m 13,7 km/h NW 312 3 min 2,5 UV-I 700 W/m 1,4 C 0,6 C 27,4 km/h
26.03.2019 09:24 5,5 C 75 % 1024,3 hPa 0,0 l/m 17,7 km/h N 360 3 min 2,2 UV-I 652 W/m 1,4 C -1,6 C 33,8 km/h
26.03.2019 09:21 5,4 C 74 % 1024,2 hPa 0,0 l/m 15,4 km/h N 355 0 min 1,8 UV-I 271 W/m 1,1 C -0,6 C 27,4 km/h
26.03.2019 09:18 5,4 C 73 % 1024,3 hPa 0,0 l/m 13,6 km/h N 355 0 min 1,7 UV-I 232 W/m 1,0 C 0,3 C 25,7 km/h
_ Min-Zeit 06:12 15:06 14:51 - 19:51 - - - - - 15:06 18:12 05:06
Minimum _ 2,1 C 37 % 1011,6 hPa - 3,1 km/h - - - - - -2,6 C -3,1 C 6,4 km/h
_ Max-Zeit 14:12 04:54 10:36 03:03 16:18 - - 14:00 11:54 11:27 09:30 14:12 16:42
Maximum _ 11,9 C 93 % 1024,6 hPa 0,2 l/m 29,5 km/h
NW
- - 3 min 4,7 UV-I 914 W/m 1,8 C 10,1 C 49,9 km/h
NW
Durchschnitt _ 5,9 C 68 % 1019,0 hPa #0,4 l/m 12,1 km/h NW - #2:15 h 2,3 UV-I 293 W/m 0,0 C 2,3 C 22,5 km/h
Schulla EDV